Location: Bastelaar
(51.0950°N, 3.8602°E)
Time: 02:32:20
(UTC+00:00)

ARIANE 6 FM1 Upper Stage - Pass Details

Date: 27 January 2026
Orbit: 522 x 609 km, 62.0° (Epoch: 13 February)

Event Time Altitude Azimuth Distance (km) Brightness Sun altitude
Rises 19:11:57 0° 259° (W) 2,691 7.4 -25.8°
Reaches altitude 10° 19:14:23 10° 271° (W) 1,789 6.2 -26.2°
Enters shadow 19:17:45 30° 328° (NNW) 980 4.1 -26.7°
